Location: Buckeye Ditch
(40.9104°N, 122.9517°W)
Time: 23:35:17
(UTC+00:00)

Transit 2A - Pass Details

Date: 26 May 2025
Orbit: 599 x 947 km, 66.7° (Epoch: 20 June)

Event Time Altitude Azimuth Distance (km) Brightness Sun altitude
Rises 13:19:24 0° 205° (SSW) 3,040 8.6 4.9°
Reaches altitude 10° 13:21:47 10° 205° (SSW) 2,081 7.8 5.4°
Maximum altitude 13:26:27 81° 119° (ESE) 643 5.9 6.2°
Drops below altitude 10° 13:30:51 10° 32° (NNE) 1,967 9.2 6.9°
Sets 13:33:03 0° 31° (NNE) 2,859 9.9 7.3°
